Résultats de la compétition "Chpt Rég MD LNPCCO" du 14-03-2010 organisée par le club 5907
     
  Télécharger le fichier CSV.  
     
     

 Circuit "A"

Licence Nom Prénom Temps CN
précédent
Score sur
la course
Différence
9630SMIRNOVSerguei0:39:0761796150-29
6999MAHIEUPierre0:39:2459866106+120
22963SOUWEINEGérald0:40:13N/A5982N/A
17574LEQUINTRémi0:41:0458455858+13
1233CREFCOEURPhilippe0:42:0764805712-768
8081LEGEREPascal0:43:3650825518+436
12468RADONDYDaniel0:43:5256225484-138
13756FLANDRINGautier0:43:5847415472+731
2822DICKBURTMichel0:44:0657725455-317
9629SMIRNOVKonstantin0:44:1665105435-1075
5421LOTERIEJ-Francois0:45:2153785305-73
10782MAILLARDLudovic0:45:5846835234+551
10869DENIERSimon0:47:2257675079-688
13278TAELEMANSPhilippe0:48:1153104993-317
16954BERNACJordan0:48:1552514986-265
15831GOLECCharly0:48:5946864911+225
11077MAUCONDUITArnaud0:49:3345394855+316
13090GAUDUINMaxime0:49:4057434844-899
16399GENCEEric0:49:4142574842+585
11524CAROULLEYannick0:50:1441144789+675
17630CATAlain0:50:2334714775+1304
16280DANELJerome0:51:1257934699-1094
1814LERICHEFranck0:51:4749654646-319
19699GOBERTAlain0:52:1841614600+439
7200SZYMANOWSKIFabrice0:52:5549784546-432
994SEGUINOTAlbert0:53:2043494511+162
23043COMMERELaurent0:53:35N/A4490N/A
16397CLAIRETRichard0:54:0146934454-239
18300GOURLAINVincent0:54:1738624432+570
18786SCHIMPFLaurent0:55:2842494337+88
10079PAPINPhilippe0:57:2839674186+219
18651DROGOULMatthieu0:57:4147274171-556
12963CASTIERPhilippe0:57:5345234156-367
11361JAUVAINThierry1:00:1640013992-9
6118SPIRALThierry1:00:44N/A3961N/A
17202LAMINETTEFrancois1:01:5428043887+1083
16398GRIMBERTHerve1:02:1238453868+23
16227VERCAUTERENFrancois1:02:2636863853+167
18448RICQUEBOURGAxel1:02:4129633838+875
16911PROUVEURPhilippe1:03:46N/A3773N/A
9523WULLUSJ-Noel1:05:3336313670+39
18789BAERTEtienne1:06:1234373634+197
2878PATURETBertrand1:06:1644973630-867
20440LECENDREOlivier1:08:1630483524+476
5597EJSMONTJean1:10:2046663420-1246
14900PRESSONBernard1:15:0838743202-672
19128COSSARTJean1:16:0503162N/A
14228BISQUERTChristophe1:18:3327863063+277
22901PECQUEURMickaël1:19:40N/A3020N/A
9164TORZDidier1:21:1136092963-646
23236WILLEMINFrançois1:21:13N/A2962N/A
20676DELINSELLEAlexis1:24:0431962862-334
18803BECARTBernard1:26:2831822782-400
22302PRUVOSTStephane1:30:14N/A2666N/A
19473WAMBREFranck1:30:17N/A2665N/A
20722MOREAU-DESCOINGSFrançois1:33:1829172579-338
16102BAILLYBertrand1:40:1722672399+132
23028FAVIEREric1:50:44N/A2173N/A
16961PARMENTFabienN/A30440-3044
20405CHAPUSStanislasN/A43880-4388
7215LEROYJacquesN/A41700-4170
985ROSINIDanyN/A30940-3094
8947BOULANGERPatrickN/A44510-4451
16281BIZOTLaurentN/A40730-4073
17664DRAMEZFredericN/A22850-2285
15245BARTOSThomasN/A47200-4720
13757PRINSGregoryN/A54710-5471
8180L'HUILLIERPhilippeN/A39660-3966
12466BUCKMANFranckN/A40530-4053

  Indice de confiance du circuit (moyenne des différences entre CN et score sur la course des 3 à 10 premiers) : 110




 Circuit "B"

Licence Nom Prénom Temps CN
précédent
Score sur
la course
Différence
7000GRENOUILLATLise0:37:4946875196+509
14227DESRUMAUXMarie0:39:5650224920-102
2892MOULIERECamille0:42:5046464587-59
8445FINASCeline0:43:4048854500-385
11434SAUVAGEElsa0:45:4041874302+115
15795DESRUMAUXCeline0:48:0444404088-352
7044LOTERIEMurielle0:49:1338163992+176
14246CARRIERValerie0:52:5732983711+413
13270ROUXCatherine0:56:1837403490-250
9165BAILLEULJ-Paul0:56:4441343463-671
20629KIRILOVAurélie0:56:5530023452+450
9426LERICHECamille0:57:4239803405-575
7216LEROYOdile0:57:4827193399+680
16229VERCAUTERENM-Claude1:00:3736063241-365
13429MILLEVILLEHerve1:02:1730113155+144
989ROSINIVeronique1:02:2326903150+460
15247SANCHEZMarlene1:03:2634903097-393
13272CZERNIAKSidonie1:06:2828902956+66
19155GOURLAINMarguerite-marie1:12:3324102708+298
1948POULAINOdile1:12:4528522701-151
10639BOULANGERIsabelle1:14:4633352628-707
17899DEPERSINIsabelle1:14:4629352628-307
22417GERBEAUXMarie-jeanne1:18:2002508N/A
7048HAGARDVirginie1:21:2621802413+233
13279PRUVOSTVeronique1:30:5721672160-7
23079MERCIERAgnès1:32:48N/A2117N/A
10081TORZ-DRUONMagali1:34:4529032074-829
21160LEGRANDPauline1:37:2322102018-192
22237VANOVERBERGHENathalie1:37:5616872006+319
20425PECQUEURSylvie1:44:4322861876-410
22345POLLETAntoine1:47:3901825N/A
17201LAMINETTEM-Odile1:49:4018081792-16
3429SERREFrancine2:34:4018001270-530
13635JUDASSylvaineN/AN/A0N/A
19241VADURELPaulineN/A37750-3775
15895LACHAUMEPatrickN/A44540-4454

  Indice de confiance du circuit (moyenne des différences entre CN et score sur la course des 3 à 10 premiers) : 152




 Circuit "C"

Licence Nom Prénom Temps CN
précédent
Score sur
la course
Différence
14665SZYMANOWSKIValentin0:24:1452825900+618
20648MALAKMaxence0:27:2449465218+272
19411DUBOISXavier0:27:5044075137+730
19240MAZYFrançois-rémi0:29:0145994928+329
9171POULAINYannick0:31:1141894585+396
20195DESOOMERJean-jacques0:32:0637394454+715
13669DESREUMAUXArthur0:33:2655534277-1276
15170DESREUMAUXVictor0:34:1940504166+116
20214PECQUEURFlorian0:36:1545593944-615
16143WANTIERLoic0:37:1444013840-561
20840DUBUISSONRony0:38:5233193679+360
20177WATRELOTJulien0:43:4438733269-604
16226VERCAUTERENThomas0:43:4937243263-461
20029GOBERTAlexandre0:46:0925183098+580
22219THOMASJulien0:53:2336652678-987
20684STRATMAINSLudovic0:59:4515052393+888
22511HENEMANMaxence1:00:4202356N/A
22373DELCUSESébastien1:02:5520762273+197
22651ARROQUIPhilippe1:05:5002172N/A
22510DARCOURTTony1:14:0901928N/A
22934POIRSONVincent1:15:51N/A1885N/A
23015LEICHTTheo1:26:56N/A1645N/A
22251FAVIERMaxence1:27:4914001628+228
22512GRESSIERTheo1:28:1317451621-124
23014VELUAntoine1:33:01N/A1537N/A
16918JASPARDBrigitte1:35:52N/A1491N/A
15408DEPRETTEFrancois1:40:5901416N/A
20301TREULIERLaurent1:46:2819511343-608
22556JASPARDYves1:51:44N/A1280N/A

  Indice de confiance du circuit (moyenne des différences entre CN et score sur la course des 3 à 10 premiers) : 402




 Circuit "D"

Licence Nom Prénom Temps CN
précédent
Score sur
la course
Différence
19136TANTARTDelphine0:28:1640444891+847
7045LOTERIELaurine0:31:2843744394+20
14911LAMINETTEPauline0:33:1439284160+232
18632CUVILLIERSPerrine0:34:5435133961+448
17577FACHAUXAngélique0:36:0440283833-195
20200LEPERQUEOphelie0:36:5232173750+533
18611LANQUETINCéline0:39:4238643482-382
20572GUILMAINMelanie0:40:5730313376+345
18299GOURLAINMathilde0:42:3428743248+374
20215SIXPauline0:43:2728163182+366
19238CAMASMandye0:43:5131033153+50
20213DECOOPMANClémentine0:48:5830082823-185
14245RICHARDNicole0:50:0631132760-353
2888MOULIEREM-Bernadett0:50:5331522717-435
21323VANOVERBERGHECamille0:53:1226312599-32
20439GOLECZoé1:00:2430002289-711
20224SELINGUECécile1:00:5924732267-206
2885LECOYERAnnick1:03:3027142177-537
20302TREULIEREmmanuelle1:06:4211092073+964
9172POULAINGael1:17:0529971794-1203
14164EJSMONTMartine1:27:1918311583-248
22911SIXYvette1:45:30N/A1310N/A
15894LUDEWIG-JAMESCarol1:47:0821281290-838
22235RIMETZMarcelline2:13:3901034N/A
22349MAZINGUELucie2:18:47N/A996N/A
22558DOZIASLune2:22:43N/A969N/A
22803CLAVELNathalie2:50:25N/A811N/A
22804CLAVELMatéoN/AN/A0N/A

  Indice de confiance du circuit (moyenne des différences entre CN et score sur la course des 3 à 10 premiers) : 234




 Circuit "E"

Licence Nom Prénom Temps CN
précédent
Score sur
la course
Différence
16228VERCAUTERENAntoine0:21:3340073148-859
22717BAILLIEULMartin0:23:55N/A2837N/A
22433MALAKNathan0:24:2017522788+1036
22157BULLIERRomain0:29:1123952325-70
21224SIXThibaut0:33:5019812005+24
19744VERCAUTERENClémence0:47:5814791414-65
22447LALOUXClément0:54:1712931250-43
22520D'ANNUNZIONoa0:57:0101190N/A
13758CREFCOEURLievin1:04:1322321056-1176
22518D'ANNUNZIOEnzo1:05:0201043N/A
22238VANOVERBERGHEMathilde1:07:317961005+209
22925GROSSIKurtys1:10:53N/A957N/A
22517D'ANNUNZIOSophie1:13:010929N/A
22549LECUYERManon1:18:030869N/A
22519D'ANNUNZIOEvaN/A00N/A

  Indice de confiance du circuit (moyenne des différences entre CN et score sur la course des 3 à 10 premiers) : 546






 Retour